User: anonymous   Login
Location: Unspecified
(0.0000°N, 0.0000°E)
Time: 21:50:25
(UTC+00:00)
Language:

Himawari 4 - Orbit

View from above orbital plane
View from above orbital plane
View from above satellite
View from above satellite

Ground track
Ground track

The orbit data is extracted from the following two-line orbital elements,

1 20217U 89070A   18145.69138074 -.00000093  00000-0  00000+0 0  9995
2 20217  15.8233  10.4443 0044796  68.6376 285.6544  0.97411057103842
Epoch (UTC): 25 May 2018 16:35:35
Eccentricity: 0.0044796
inclination: 15.8233°
perigee height: 36415 km
apogee height: 36800 km
right ascension of ascending node: 10.4443°
argument of perigee: 68.6376°
revolutions per day: 0.97411057
mean anomaly at epoch: 285.6544°
orbit number at epoch: 10384

The dashed part of the orbit path shows where the satellite is in the earth's shadow,  

DLR